sat.trackr.live / text

‹ back to catalog

STARLINK-4034

NORAD 52700 · 2022-053AW

PAYLOAD ACTIVE UNKNOWN

§ Identity

Operator
Country
US
Launch date
2022-05-18
Launch site
AFETR
Launch vehicle
Mass (kg)
RCS (m²)

Purposes: comms

External: N2YO · Heavens-Above · Gunter

§ Orbital elements

Epoch: 2026-09-20T05:16:30.694944Z

Period
93.85 min
Inclination
53.1602°
Eccentricity
0.0001042
Mean motion
15.34402687 rev/d
Perigee alt
462.0 km
Apogee alt
463.4 km
Semi-major
6,840.8 km
B*
5.9776e-5
RAAN
349.0855°
Arg perigee
69.4907°
Mean anomaly
290.6207°
Rev number
24,054

§ Raw data

STARLINK-40341 52700U 22053AW  26263.21979971  .00001644  00000+0  59776-4 0  99922 52700  53.1602 349.0855 0001042  69.4907 290.6207 15.34402687240540

JSON: /api/v1/satellites/52700 · /tle

For live sub-satellite position, see the globe view (requires WebGL).

§ Visibility from observer

Set your observer location to see the next 7 days of passes ≥ 10°. The values pass through the URL so the page stays shareable.

No JS? Fill the form by hand. The geolocation button needs JavaScript.